Regional Weather Roundup
Issued by NWS

Home | Current Version | Previous Version | Text Only | Print | Product List | Glossary Off
Versions: 1 2 3 4 5 6 7 8 9 10 11 12 13 14 15 16 17 18 19 20 21 22 23 24 25 26 27 28 29 30 31 32 33 34 35 36 37 38 39 40 41 42 43 44 45 46 47 48 49 50

000
ASUS43 KLMK 282102
RWRKY
KENTUCKY REGIONAL WEATHER ROUNDUP
NATIONAL WEATHER SERVICE LOUISVILLE KY
400 PM EST SUN DEC 28 2014

NOTE "FAIR" INDICATES FEW OR NO CLOUDS BELOW 12,000 FEET
WITH NO SIGNIFICANT WEATHER AND/OR OBSTRUCTIONS TO VISIBILITY.

KYZ001>023-026-027-061>063-070>075-282200-
WESTERN AND SOUTH CENTRAL KENTUCKY

CITY           SKY/WX    TMP DP  RH WIND       PRES   REMARKS
PADUCAH        CLOUDY    36  29  75 N7        30.19R WCI  30
HENDERSON      CLOUDY    34  27  75 N6        30.20R WCI  29
OWENSBORO      CLOUDY    36  30  79 N9        30.20R WCI  29
HOPKINSVILLE   CLOUDY    36  33  88 N7        30.16R WCI  31
BOWLING GREEN  CLOUDY    37  34  89 VRB3      30.16R FOG
GLASGOW        NOT AVBL
$$

KYZ024-025-028>034-038-045-046-053-282200-
NORTH CENTRAL KENTUCKY

CITY           SKY/WX    TMP DP  RH WIND       PRES   REMARKS
LOUISVILLE/SDF CLOUDY    37  30  75 N8        30.17R WCI  31
LOUISVILLE/LOU CLOUDY    36  29  75 N7        30.17R WCI  30
FORT KNOX      CLOUDY    35  32  87 NW5       30.15R WCI  31
$$

KYZ035>037-039>044-047>052-055>060-089>105-282200-
NORTHEAST KENTUCKY

CITY           SKY/WX    TMP DP  RH WIND       PRES   REMARKS
LEXINGTON      CLOUDY    36  35  96 N6        30.14R FOG     WCI  31
COVINGTON      CLOUDY    37  26  64 N6        30.14R WCI  32
FRANKFORT      CLOUDY    35  33  92 NW9       30.14R FOG     WCI  28
$$

KYZ054-064>069-076>088-106>120-282200-
SOUTHEAST KENTUCKY

CITY           SKY/WX    TMP DP  RH WIND       PRES   REMARKS
JACKSON        CLOUDY    42  39  89 CALM      30.08R
LONDON         LGT RAIN  43  39  86 N6        30.10R
SOMERSET       NOT AVBL
MIDDLESBORO    CLOUDY    49  47  92 CALM      30.07R
MONTICELLO     CLOUDY    43  42  96 NW6       30.14R
$$



USA.gov is the U.S. government's official web portal to all federal, state and local government web resources and services.